ROMMA est une association bénévole à but non lucratif. Votre soutien est indispensable : ADHERER à ROMMA ou FAIRE un DON

Granges-lès-Beaumont - (26, Drôme)

Drôme des Collines (155 m)   Longitude: 04°58'E   Latitude: 45°03'N Station partenaire n°123
 

Détail journalier du     <<     >>

Température Precipitation Humidité Pression Vent Dir Rafale Dir. rafale Ensol.
Heure (°C) (mm) (%) (hPa) (km/h) (km/h) (min)
01:00 13.109710182ONO10NO0
02:00 12.809710173NO10NNO0
03:00 12.409710174NO11ONO0
04:00 11.809610173NNO10NO0
05:00 11.509710173ONO8NNO0
06:00 11.309710164NNO8NO0
07:00 11.409710165NO13NNO0
08:00 11.109710162ONO8ONO20
09:00 11.109710162SSO8ONO10
10:00 11.709710162O8O0
11:00 13.009310153SSE13ESE0
12:00 14.409110154SO11OSO0
13:00 15.408410145SSE19S0
14:00 15.508710136SSO19S0
15:00 15.9081101212SSO37S0
16:00 14.90.287101214SSO37S0
17:00 14.80.488101110SSO24SO0
18:00 14.908810116S19S0
19:00 15.108710116S21SSO0
20:00 14.908610117S24S0
21:00 14.11.89210109SSO31OSO0
22:00 13.32.493101012SO29S0
23:00 13.1294101012SSO31S0
minuit 13.1294101011SSO27S0

Graphique du 01-11-2019

 

Serveur OMMA